User: anonymous   Login
Location: Theydon Bois
(51.6750°N, 0.1050°E)
Time: 09:05:49
(UTC+01:00)
Language:

Spot 2 Rocket - Orbit

View from above orbital plane
View from above orbital plane
View from above satellite
View from above satellite

Ground track
Ground track

The orbit data is extracted from the following two-line orbital elements,

1 20443U 90005H   18197.75081269 -.00000022 +00000-0 +77384-5 0  9990
2 20443 098.6749 246.7972 0009206 270.0786 089.9345 14.38042114491260
Epoch (UTC): 16 July 2018 18:01:10
Eccentricity: 0.0009206
inclination: 98.6749°
perigee height: 758 km
apogee height: 771 km
right ascension of ascending node: 246.7972°
argument of perigee: 270.0786°
revolutions per day: 14.38042114
mean anomaly at epoch: 89.9345°
orbit number at epoch: 49126

The dashed part of the orbit path shows where the satellite is in the earth's shadow,  

DLR